Date String (YYYY-MM-DD hh:mm:ss) UTC,Instrument flags,Ambient pressure (hPa),Sample flow (lpm),Bypass flow (lpm),Sample temperature (°C),Ambient temperature (°C),ASC tube jacket temperature (°C),LED temperature (°C),Box temperature (°C),Sample RH (%),Span deviation,Mass concentration (μg/m³),Mass concentration (μg/m³),Mass concentration (μg/m³)
DateTimeUTC,F1_M11,P_M11,Q1_M11,Q2_M11,T1_M11,T2_M11,T3_M11,T4_M11,T5_M11,U1_M11,ZSPAN_M11,X0_M11,X2_M11,X1_M11
2023-01-22 09:00:00,,0821.2,5.00,0.00,22.4,21.1,00.0,31.2,24.2,08.9,0000.0,0006.19,0002.80,0002.43
2023-01-22 09:01:00,,0821.1,4.99,0.00,22.4,21.0,00.0,31.2,24.1,08.8,0000.0,0006.17,0002.75,0002.41
2023-01-22 09:02:00,,0821.0,5.00,0.00,22.4,20.9,00.0,31.2,24.1,08.8,0000.0,0006.12,0002.72,0002.39
2023-01-22 09:03:00,,0821.0,5.01,0.00,22.4,20.7,00.0,31.2,24.0,08.8,0000.0,0006.02,0002.71,0002.37
2023-01-22 09:04:00,,0821.1,4.99,0.00,22.3,20.4,00.0,31.2,23.9,08.8,0000.0,0005.91,0002.69,0002.35
2023-01-22 09:05:00,,0821.1,5.00,0.00,22.3,20.3,00.0,31.2,23.9,08.8,0000.0,0005.82,0002.64,0002.33
2023-01-22 09:06:00,,0821.1,5.01,0.00,22.3,20.4,00.0,31.1,23.9,08.8,0000.0,0006.12,0002.68,0002.34
2023-01-22 09:07:00,,0821.2,5.02,0.00,22.2,20.5,00.0,31.1,23.9,08.8,0000.0,0006.08,0002.71,0002.34
2023-01-22 09:08:00,,0821.2,5.00,0.00,22.2,20.6,00.0,31.1,23.9,08.9,0000.0,0005.77,0002.68,0002.33
2023-01-22 09:09:00,,0821.1,5.00,0.00,22.2,20.7,00.0,31.1,23.9,09.0,0000.0,0004.67,0002.66,0002.31
2023-01-22 09:10:00,,0821.2,5.00,0.00,22.3,21.5,00.0,31.1,24.1,09.0,0000.0,0004.65,0002.64,0002.29
2023-01-22 09:11:00,,0821.2,5.00,0.00,22.4,22.5,00.0,31.1,24.3,08.9,0000.0,0004.48,0002.57,0002.27
2023-01-22 09:12:00,,0821.2,5.00,0.00,22.5,22.9,00.0,31.1,24.5,08.8,0000.0,0004.44,0002.57,0002.25
2023-01-22 09:13:00,,0821.1,5.00,0.00,22.5,22.5,00.0,31.1,24.5,08.8,0000.0,0004.34,0002.54,0002.23
2023-01-22 09:14:00,,0821.1,5.01,0.00,22.5,22.0,00.0,31.2,24.4,08.7,0000.0,0004.34,0002.54,0002.22
2023-01-22 09:15:00,,0821.1,5.01,0.00,22.5,21.7,00.0,31.2,24.3,08.7,0000.0,0004.44,0002.57,0002.21
2023-01-22 09:16:00,,0821.2,4.99,0.00,22.5,21.4,00.0,31.2,24.2,08.7,0000.0,0004.48,0002.58,0002.19
2023-01-22 09:17:00,,0821.2,5.01,0.00,22.5,21.2,00.0,31.2,24.2,08.7,0000.0,0004.48,0002.57,0002.17
2023-01-22 09:18:00,,0821.2,4.98,0.00,22.4,21.1,00.0,31.2,24.2,08.7,0000.0,0003.70,0002.57,0002.15
2023-01-22 09:19:00,,0821.2,5.03,0.00,22.4,21.0,00.0,31.2,24.2,08.7,0000.0,0003.17,0002.52,0002.13
2023-01-22 09:20:00,,0821.1,5.01,0.00,22.4,20.9,00.0,31.2,24.2,08.7,0000.0,0003.08,0002.48,0002.14
2023-01-22 09:21:00,,0821.1,5.00,0.00,22.4,20.9,00.0,31.2,24.1,08.7,0000.0,0003.90,0002.51,0002.16
2023-01-22 09:22:00,,0821.2,4.99,0.00,22.4,20.9,00.0,31.2,24.1,08.7,0000.0,0004.02,0002.53,0002.17
2023-01-22 09:23:00,,0821.2,5.00,0.00,22.4,21.0,00.0,31.2,24.1,08.7,0000.0,0004.04,0002.53,0002.18
2023-01-22 09:24:00,,0821.2,4.99,0.00,22.4,20.9,00.0,31.2,24.1,08.7,0000.0,0004.08,0002.55,0002.20
2023-01-22 09:25:00,,0821.2,5.00,0.00,22.4,20.9,00.0,31.2,24.1,08.7,0000.0,0004.12,0002.57,0002.22
2023-01-22 09:26:00,,0821.2,5.00,0.00,22.4,20.9,00.0,31.2,24.1,08.7,0000.0,0004.09,0002.55,0002.23
2023-01-22 09:27:00,,0821.2,4.99,0.00,22.3,20.9,00.0,31.2,24.1,08.7,0000.0,0004.17,0002.58,0002.26
2023-01-22 09:28:00,,0821.2,5.02,0.00,22.3,20.9,00.0,31.2,24.1,08.7,0000.0,0004.34,0002.63,0002.27
2023-01-22 09:29:00,,0821.2,5.00,0.00,22.3,20.9,00.0,31.2,24.1,08.7,0000.0,0004.29,0002.62,0002.31
2023-01-22 09:30:00,,0821.2,5.01,0.00,22.3,20.9,00.0,31.2,24.1,08.7,0000.0,0004.39,0002.67,0002.34
2023-01-22 09:31:00,,0821.2,4.98,0.00,22.3,21.0,00.0,31.1,24.1,08.7,0000.0,0004.51,0002.72,0002.36
2023-01-22 09:32:00,,0821.2,5.01,0.00,22.4,21.8,00.0,31.1,24.3,08.7,0000.0,0004.41,0002.72,0002.36
2023-01-22 09:33:00,,0821.1,5.00,0.00,22.5,22.7,00.0,31.1,24.5,08.6,0000.0,0004.43,0002.74,0002.36
2023-01-22 09:34:00,,0821.1,4.99,0.00,22.6,22.9,00.0,31.2,24.6,08.6,0000.0,0004.47,0002.75,0002.34
2023-01-22 09:35:00,,0821.1,5.00,0.00,22.6,22.5,00.0,31.2,24.6,08.6,0000.0,0004.43,0002.73,0002.32
2023-01-22 09:36:00,,0821.0,4.99,0.00,22.6,22.1,00.0,31.3,24.5,08.6,0000.0,0004.44,0002.72,0002.31
2023-01-22 09:37:00,,0821.0,4.98,0.00,22.6,21.7,00.0,31.3,24.4,08.6,0000.0,0004.34,0002.67,0002.30
2023-01-22 09:38:00,,0821.0,5.03,0.00,22.6,21.5,00.0,31.3,24.4,08.6,0000.0,0004.31,0002.66,0002.29
2023-01-22 09:39:00,,0820.9,5.00,0.00,22.6,21.3,00.0,31.3,24.3,08.6,0000.0,0004.36,0002.66,0002.29
2023-01-22 09:40:00,,0820.9,5.00,0.00,22.6,21.2,00.0,31.3,24.3,08.6,0000.0,0004.82,0002.66,0002.26
2023-01-22 09:41:00,,0820.9,5.00,0.00,22.5,21.1,00.0,31.3,24.2,08.6,0000.0,0004.82,0002.65,0002.23
2023-01-22 09:42:00,,0820.9,5.01,0.00,22.5,21.0,00.0,31.3,24.2,08.6,0000.0,0004.84,0002.64,0002.21
2023-01-22 09:43:00,,0820.9,5.00,0.00,22.5,21.0,00.0,31.3,24.2,08.6,0000.0,0004.38,0002.63,0002.21
2023-01-22 09:44:00,,0820.9,5.01,0.00,22.5,21.0,00.0,31.3,24.2,08.6,0000.0,0004.14,0002.64,0002.23
2023-01-22 09:45:00,,0820.9,5.00,0.00,22.4,21.0,00.0,31.3,24.1,08.6,0000.0,0004.19,0002.64,0002.24
2023-01-22 09:46:00,,0821.0,5.00,0.00,22.4,21.0,00.0,31.3,24.1,08.6,0000.0,0004.34,0002.70,0002.27
2023-01-22 09:47:00,,0821.0,4.98,0.00,22.4,21.0,00.0,31.3,24.1,08.6,0000.0,0004.47,0002.75,0002.29
2023-01-22 09:48:00,,0821.0,5.01,0.00,22.4,21.0,00.0,31.3,24.1,08.6,0000.0,0005.33,0002.79,0002.29
2023-01-22 09:49:00,,0820.9,4.99,0.00,22.4,20.9,00.0,31.3,24.1,08.6,0000.0,0005.36,0002.79,0002.29
2023-01-22 09:50:00,,0820.9,4.99,0.00,22.4,20.9,00.0,31.3,24.0,08.5,0000.0,0006.44,0002.73,0002.28
2023-01-22 09:51:00,,0820.9,5.02,0.00,22.4,20.8,00.0,31.2,24.0,08.5,0000.0,0006.27,0002.69,0002.27
2023-01-22 09:52:00,,0820.9,5.00,0.00,22.4,21.4,00.0,31.2,24.1,08.5,0000.0,0006.44,0002.73,0002.28
2023-01-22 09:53:00,,0820.9,5.00,0.00,22.5,22.3,00.0,31.2,24.4,08.5,0000.0,0006.94,0002.74,0002.29
2023-01-22 09:54:00,,0820.9,5.00,0.00,22.6,22.8,00.0,31.2,24.5,08.5,0000.0,0007.03,0002.76,0002.30
2023-01-22 09:55:00,,0820.8,4.99,0.00,22.6,22.5,00.0,31.3,24.5,08.5,0000.0,0007.04,0002.74,0002.28
2023-01-22 09:56:00,,0820.8,5.00,0.00,22.6,22.0,00.0,31.3,24.4,08.4,0000.0,0007.02,0002.75,0002.28
2023-01-22 09:57:00,,0820.8,4.99,0.00,22.6,21.7,00.0,31.3,24.3,08.4,0000.0,0006.97,0002.74,0002.26
2023-01-22 09:58:00,,0820.8,5.00,0.00,22.6,21.4,00.0,31.3,24.3,08.5,0000.0,0006.94,0002.75,0002.26
2023-01-22 09:59:00,,0820.8,5.00,0.00,22.5,21.1,00.0,31.3,24.2,08.5,0000.0,0006.31,0002.76,0002.28
